Location: Carrigahorig
(53.0625°N, 8.1439°W)
Time: 03:19:25
(UTC+00:00)

Nadezhda 4 Rocket - Pass Details

Date: 15 May 2026
Orbit: 948 x 992 km, 82.9° (Epoch: 8 June)

Event Time Altitude Azimuth Distance (km) Brightness Sun altitude
Rises 22:06:04 0° 349° (N) 3,634 8.4 -11.6°
Reaches altitude 10° 22:08:33 10° 349° (N) 2,685 7.5 -11.8°
Maximum altitude 22:14:43 90° 81° (E) 959 4.0 -12.3°
Enters shadow 22:20:01 14° 171° (S) 2,370 5.5 -12.7°
